Reading, PA

4:15 AM EST on December 07, 2019 (GMT -0500)
Reading Regional-Spaatz

Weather History for KRDG - August, 2019

Change the Weather History Date:

Thursday, August 15, 2019

  Actual Average Record
Temperature  
Mean Temperature 78 °F 73 °F  
Max Temperature 86 °F 84 °F 96 °F (2002)
Min Temperature 70 °F 63 °F 50 °F (1907)
Degree Days  
Heating Degree Days 0 0  
Month to date heating degree days 0 0  
Since 1 June heating degree days 16 25  
Since 1 July heating degree days 0 1  
Cooling Degree Days 13 8  
Month to date cooling degree days 174 134  
Year to date cooling degree days 912 686  
Since 1 June cooling degree days 807 626  
Growing Degree Days 27 (Base 50)    
Moisture  
Dew Point 70 °F    
Average Humidity 81    
Maximum Humidity 100    
Minimum Humidity 61    
Precipitation  
Precipitation 0.02 in 0.11 in 2.19 in (1905)
Month to date precipitation 0.90 1.73  
Year to date precipitation 39.19 27.05  
Sea Level Pressure  
Sea Level Pressure 29.97 in    
Wind  
Wind Speed 6 mph (ESE)    
Max Wind Speed 14 mph    
Max Gust Speed 21 mph    
Visibility 8 miles    
Events Rain    
T = Trace of Precipitation, MM = Missing Value Source: NWS Daily Summary

Daily Weather History Graph

Daily Weather History Graph

Search for Another Location

Airport or City:

Astronomy

Aug. 15, 2019 Rise Set
Actual Time 6:14 AM EDT 8:01 PM EDT
Civil Twilight 5:45 AM EDT 8:30 PM EDT
Nautical Twilight 5:09 AM EDT 9:05 PM EDT
Astronomical Twilight 4:31 AM EDT 9:43 PM EDT
Moon 8:28 PM EDT (8/15) 6:06 AM EDT (8/15)
Length of Visible Light 14h 45m
Length of Day
13h 46m
Full, 100% of the Moon is Illuminated
Aug 15
Full
Aug 23
Last Quarter
Aug 30
New
Sep 5
First Quarter
Sep 14
Full

Hourly Weather History & Observations

Time (EDT) Temp. Heat Index Dew Point Humidity Pressure Visibility Wind Dir Wind Speed Gust Speed Precip Events Conditions
12:45 AM 73.0 °F - 71.1 °F 93% 29.94 in 10.0 mi Calm Calm - N/A   Overcast
12:54 AM 73.0 °F - 71.1 °F 93% 29.94 in 10.0 mi NW 3.5 mph - N/A   Overcast
1:43 AM 72.0 °F - 71.1 °F 97% 29.94 in 10.0 mi Calm Calm - N/A   Mostly Cloudy
1:54 AM 72.0 °F - 71.1 °F 97% 29.95 in 10.0 mi North 3.5 mph - N/A   Overcast
2:28 AM 71.1 °F - 71.1 °F 100% 29.94 in 10.0 mi Calm Calm - N/A   Mostly Cloudy
2:47 AM 71.1 °F - 71.1 °F 100% 29.94 in 10.0 mi Calm Calm - N/A   Scattered Clouds
2:54 AM 71.1 °F - 71.1 °F 100% 29.95 in 10.0 mi Calm Calm - N/A   Mostly Cloudy
3:06 AM 71.1 °F - 70.0 °F 96% 29.94 in 10.0 mi NNW 4.6 mph - N/A   Partly Cloudy
3:24 AM 71.1 °F - 71.1 °F 100% 29.94 in 10.0 mi NNW 3.5 mph - N/A   Mostly Cloudy
3:54 AM 71.1 °F - 71.1 °F 100% 29.95 in 10.0 mi North 3.5 mph - N/A   Mostly Cloudy
4:04 AM 71.1 °F - 71.1 °F 100% 29.94 in 10.0 mi North 3.5 mph - N/A   Mostly Cloudy
4:52 AM 71.6 °F - 71.6 °F 100% 29.93 in 10.0 mi Calm Calm - N/A   Scattered Clouds
4:54 AM 71.1 °F - 71.1 °F 100% 29.94 in 10.0 mi Calm Calm - N/A   Partly Cloudy
5:54 AM 71.1 °F - 71.1 °F 100% 29.96 in 10.0 mi Calm Calm - N/A   Mostly Cloudy
6:00 AM 71.1 °F - 71.1 °F 100% 29.95 in 1.5 mi Calm Calm - N/A   Mostly Cloudy
6:20 AM 70.0 °F - 70.0 °F 100% 29.95 in 1.5 mi Calm Calm - N/A   Mostly Cloudy
6:54 AM 70.0 °F - 70.0 °F 100% 29.97 in 1.5 mi Calm Calm - N/A   Clear
7:54 AM 72.0 °F - 72.0 °F 100% 29.99 in 1.0 mi Calm Calm - N/A   Scattered Clouds
7:58 AM 73.0 °F - 72.0 °F 96% 29.98 in 2.0 mi Calm Calm - N/A   Mostly Cloudy
8:31 AM 73.0 °F - 72.0 °F 96% 30.00 in 2.0 mi Calm Calm - N/A   Overcast
8:44 AM 73.9 °F - 72.0 °F 93% 30.00 in 2.0 mi Calm Calm - N/A   Overcast
8:54 AM 73.9 °F - 72.0 °F 93% 30.01 in 2.0 mi SW 3.5 mph - N/A   Overcast
9:21 AM 75.0 °F - 72.0 °F 90% 30.00 in 2.0 mi Calm Calm - N/A   Overcast
9:54 AM 75.9 °F - 70.0 °F 82% 30.01 in 2.0 mi Variable 4.6 mph - N/A   Overcast
10:48 AM 78.8 °F - 71.6 °F 78% 30.01 in 6.0 mi ESE 8.1 mph - N/A   Haze
10:54 AM 78.1 °F - 70.0 °F 76% 30.02 in 6.0 mi East 8.1 mph - N/A   Haze
11:54 AM 78.1 °F - 70.0 °F 76% 30.01 in 6.0 mi East 6.9 mph - N/A   Haze
12:01 PM 79.0 °F - 70.0 °F 74% 30.00 in 10.0 mi East 10.4 mph - N/A   Haze
12:54 PM 81.0 °F 84.1 °F 69.1 °F 67% 30.00 in 10.0 mi Variable 3.5 mph - N/A   Haze
1:54 PM 81.0 °F 84.1 °F 69.1 °F 67% 29.98 in 10.0 mi ESE 6.9 mph - N/A   Haze
2:54 PM 84.0 °F 88.4 °F 70.0 °F 63% 29.95 in 10.0 mi ESE 8.1 mph - N/A   Scattered Clouds
3:54 PM 82.9 °F 86.5 °F 69.1 °F 63% 29.94 in 10.0 mi SE 6.9 mph - N/A   Scattered Clouds
4:54 PM 84.0 °F 87.8 °F 69.1 °F 61% 29.93 in 10.0 mi SSE 11.5 mph - N/A   Scattered Clouds
5:54 PM 82.0 °F 85.5 °F 69.1 °F 65% 29.96 in 10.0 mi South 10.4 mph - N/A   Mostly Cloudy
6:54 PM 81.0 °F 84.1 °F 69.1 °F 67% 29.95 in 10.0 mi SSE 6.9 mph - N/A   Scattered Clouds
7:54 PM 79.0 °F - 66.9 °F 66% 29.95 in 10.0 mi SE 8.1 mph - N/A   Scattered Clouds
8:54 PM 78.1 °F - 68.0 °F 71% 29.99 in 10.0 mi SE 3.5 mph - N/A   Scattered Clouds
9:02 PM 78.1 °F - 68.0 °F 71% 29.98 in 10.0 mi ESE 5.8 mph - N/A   Mostly Cloudy
9:37 PM 77.0 °F - 68.0 °F 74% 29.95 in 10.0 mi SE 11.5 mph - N/A   Mostly Cloudy
9:54 PM 77.0 °F - 68.0 °F 74% 29.96 in 10.0 mi SSE 13.8 mph - N/A   Partly Cloudy
10:25 PM 75.9 °F - 69.1 °F 79% 29.96 in 10.0 mi SSE 10.4 mph - N/A   Mostly Cloudy
10:54 PM 73.9 °F - 70.0 °F 87% 29.98 in 10.0 mi SSE 10.4 mph - N/A   Scattered Clouds
11:46 PM 75.0 °F - 70.0 °F 84% 30.02 in 10.0 mi Calm Calm - 0.00 in Rain Light Rain
11:54 PM 73.9 °F - 70.0 °F 87% 30.03 in 10.0 mi ENE 3.5 mph - 0.00 in Rain Light Rain